Current Version              Previous Version:    01  02  03  04  05  06  07  08  09  10  11  12  13  14  15  16  17  18  19  20  21  22  23  24  25  26  27  28  29  30  
   31  32  33  34  35  36  37  38  39  40  41  42  43  44  45  46  47  48  49  50  51  52  53  54  55  56  57  58  59  60  

[Printable]
868
ASUS44 KEWX 210410
RWRTX
SOUTH TEXAS REGIONAL WEATHER ROUNDUP
NATIONAL WEATHER SERVICE AUSTIN/SAN ANTONIO TX
1100 PM CDT MON OCT 20 2014

NOTE: "FAIR" INDICATED FEW OR NO CLOUDS BELOW 12,000 FEET WITH NO
SIGNIFICANT WEATHER AND/OR OBSTRUCTIONS TO VISIBILITY.

* - THESE STATIONS ARE NOT NWS OR FAA STATIONS...AND ARE NOT SUBJECT
    TO NWS AND FAA QUALITY CONTROL.

TXZ171-172-183>190-210500-
TEXAS HILL COUNTRY AND EDWARDS PLATEAU

CITY           SKY/WX    TMP DP  RH WIND       PRES   REMARKS
JUNCTION       CLEAR     65  56  72 E5        30.07R
*LLANO         PTCLDY    63  57  82 E3        30.09S
BURNET         PTCLDY    66  57  72 CALM      30.09R
*HORSESHOE BAY PTCLDY    65  57  74 CALM      30.07R
*KERRVILLE     PTCLDY    66  58  76 E5        30.07S
*FREDERICKSBRG PTCLDY    63  57  83 CALM      30.08R
*ROCKSPRINGS   CLEAR     64  55  72 CALM      30.10R
*BOERNE STAGE  PTCLDY    63  54  72 CALM      30.07S
*CASTROVILLE   PTCLDY    72  56  56 E5        30.05R
HONDO          PTCLDY    71  56  58 E6        30.05R
*UVALDE        PTCLDY    73  60  64 E3        30.03S
DEL RIO        CLOUDY    73  63  70 NE5       30.00R
LAUGHLIN AFB   MOCLDY    70  59  69 E7        30.01R
CARRIZO SPRGS  PTCLDY    72  63  73 SE8       29.99S
$$

TXZ173-191>194-202-209-217>225-228-210500-
CENTRAL AND SOUTH CENTRAL TEXAS

CITY           SKY/WX    TMP DP  RH WIND       PRES   REMARKS
GEORGETOWN     MOCLDY    63  57  82 CALM      30.06R
AUSTIN/BERGSTM MOCLDY    62  59  90 CALM      30.04R
AUSTIN/MABRY   MOCLDY    71  59  65 E3        30.05R
*AUSTIN/EXEC   MOCLDY    66  59  77 CALM      30.05S
*LAGO VISTA    MOCLDY    69  58  69 E5        30.07R
SAN MARCOS     CLEAR     66  54  63 NE7       30.05S
NEW BRAUNFELS  PTCLDY    70  59  68 NE5       30.02S
RANDOLPH AFB   PTCLDY    69  58  68 NE5       30.04R
PT SAN ANTONIO PTCLDY    73  58  60 E9        30.01S
SAN ANTONIO    MOCLDY    72  59  63 NE5       30.04R
STINSON FIELD  CLEAR     73  58  59 NE7       30.01R
*PLEASANTON    CLEAR     69  59  70 NE3       30.03R
*LA GRANGE     MOCLDY    66  63  89 CALM      30.02R
*GIDDINGS      MOCLDY    69  60  72 CALM      30.07S
*GONZALES      MOCLDY    70  61  74 E5        30.02S
$$

TXZ163>164-176>182-195>201-210>213-226-227-235-210500-
SOUTHEAST TEXAS

CITY           SKY/WX    TMP DP  RH WIND       PRES   REMARKS
COLLEGE STN    MOCLDY    68  60  75 E3        30.05R
*BRYAN         MOCLDY    64  60  86 NE3       30.06F
*CALDWELL      MOCLDY    66  61  82 CALM      30.08S
*CROCKETT      MOCLDY    61  61 100 CALM      30.09R
*BRENHAM       MOCLDY    67  62  82 CALM      30.04F
HUNTSVILLE     CLEAR     61  58  90 CALM      30.05S
CONROE         PTCLDY    59  58  96 CALM      30.05S
HOUSTON BUSH   MOCLDY    65  58  78 NE3       30.03S
HOUSTON HOBBY  MOCLDY    69  59  70 CALM      30.02S
*HOUSTON SW AP MOCLDY    62  58  88 CALM      30.04R
PEARLAND       MOCLDY    70  60  70 NE6       30.04R
HOUSTON HOOKS  MOCLDY    67  61  81 NE3       30.04R
ELLINGTON FLD  PTCLDY    70  59  68 E1        30.04R
SUGAR LAND     MOCLDY    70  59  68 CALM      30.03R
*HOUSTON EXEC  MOCLDY    64 N/A N/A NE6       30.04F
*CLEVELAND MUN NOT AVBL
*WHARTON       CLEAR     65  61  85 CALM      30.03S
*COLUMBUS      FAIR      65  60  85 CALM      30.02S
$$

TXZ214>216-236>238-210500-
THE UPPER TEXAS COAST

CITY           SKY/WX    TMP DP  RH WIND       PRES   REMARKS
*ORANGE        PTCLDY    61  61 100 N3        30.04S
PORT ARTHUR    PTCLDY    63  57  81 CALM      30.02S
GALVESTON      PTCLDY    72  64  76 NE12      30.03R
ANGLETON       CLEAR     64  64 100 CALM      30.02R
*BAY CITY        N/A     67  67  99 E3        30.01S FOG
PALACIOS       CLEAR     70  66  87 NE6       30.01S
$$

TXZ229>234-239>247-210500-
TEXAS COASTAL BEND AND RIO GRANDE PLAINS

CITY           SKY/WX    TMP DP  RH WIND       PRES   REMARKS
VICTORIA       CLEAR     67  63  87 NE6       30.02R
*BEEVILLE      CLEAR     72  67  87 E6        30.00S
ROCKPORT       CLEAR     76  69  79 E12       29.99R
*PORT ARANSAS  PTCLDY    76  70  81 E14G21    29.98S
*PORT LAVACA   CLEAR     73  66  80 E9        30.01S
*INGLESIDE     CLEAR     76  70  82 E8        29.98S
CORPUS CHRISTI PTCLDY    75  71  87 E10       29.98S
CORPUS NAS     PTCLDY    76  72  87 E12       29.97S
*ROBSTOWN      NOT AVBL
ALICE          CLEAR     70  68  93 NE6       29.99R FOG
KINGSVILLE NAS PTCLDY    73  72  96 E7        29.97S
COTULLA        PTCLDY    74  63  68 SE7       30.00S
*FAITH RANCH   PTCLDY    73  64  73 SE6       30.01R
LAREDO         PTCLDY    73  67  81 E8        30.02R
$$

TXZ248>255-210500-
DEEP SOUTH TEXAS

CITY           SKY/WX    TMP DP  RH WIND       PRES   REMARKS
BROWNSVILLE    CLEAR     75  69  81 NE5       29.94S
PORT ISABEL    PTCLDY    79  72  79 NE15G21   29.94S
*SOUTH PADRE   MOCLDY    81  72  74 NE16      29.94S
HARLINGEN      PTCLDY    73  71  93 NE5       29.94S
*HEBBRONVILLE  CLEAR     70  67  90 E5        30.00S
MCALLEN        CLEAR     74  70  87 NE7       29.96S
*WESLACO       CLEAR     71  67  87 CALM      29.95F
FALFURRIAS     CLEAR     71  68  91 NE5       29.97F
EDINBURG       CLEAR     72  69  89 CALM      29.97S
*ZAPATA        CLOUDY    74  66  75 E8        29.98R
$$

TXZ213>215-236>238-242>244-246-247-251-254-255-210500-
CMAN STATIONS

STATION/POSITION TIME  TEMP    WIND        PRES    WAVE
                       AIR SEA DIR/SP/G            HT/PER
                 (UTC) (F)     (DEG/KT/KT) (MB)    (FT/S)
SABINE PASS      0400   69 75   70/  5/  7 1016.6
SEA RIM ST PARK  0400   68      30/  6/  7 1017.1
NORTH JETTY/GLS  0400   74 79   80/ 13/ 14   N/A
EAGLE POINT      0400   74 76   90/ 10/ 11 1016.8
MORGANS POINT    0400   71      60/  8/  9 1016.7
MISSION/ARANSAS  0300           80/ 10     1016.0
PORT O`CONNOR    0400           70/ 12/ 15   N/A
PORT ARANSAS     0400   78 78   60/ 17/ 19 1015.4
MALAQUITE BEACH  0400   78 77   60/ 17/ 21 1014.3
BAFFIN BAY       0400   77 83   60/  9/ 11 1014.8
PORT ISABEL      0400   80 80   60/  5/ 10 1014.1
$$

GMZ080-GMZ150>470-210500-
OFFSHORE BUOY REPORTS

STATION/POSITION TIME  TEMP    WIND        PRES    WAVE
                       AIR SEA DIR/SP/G            HT/PER
                 (UTC) (F)     (DEG/KT/KT) (MB)    (FT/S)
20 E GALVESTON   0400   76 78   50/ 14/ 16 1015.7    2/ 6
90 E PT ARANSAS  0400   78 81   70/ 17/ 21 1015.1    5/ 6
35 NE PT MANSFLD 0400   80 81   70/ 16/ 19 1013.8    4/ 7
200 E PT ISABEL  0400   80 81   70/ 14/ 17 1013.3    5/ 6
$$